Location: Grand Mazuras
(45.9128°N, 1.7636°E)
Time: 05:03:24
(UTC+00:00)

Cosmos 405 Rocket - Pass Details

Date: 18 April 2021
Orbit: 489 x 553 km, 81.3° (Epoch: 15 May)

Event Time Altitude Azimuth Distance (km) Brightness Sun altitude
Rises 19:29:12 0° 1° (N) 2,733 6.7 -8.2°
Reaches altitude 10° 19:31:46 10° 16° (NNE) 1,827 5.6 -8.6°
Maximum altitude 19:34:59 23° 69° (ENE) 1,196 4.2 -9.1°
Enters shadow 19:37:33 13° 116° (ESE) 1,610 4.5 -9.5°
